Weather History for Anoka County, MN

Change the Weather History Date:

Saturday, December 3, 2011

  Actual Average Record
Temperature  
Mean Temperature 30 °F -  
Max Temperature 33 °F 33 °F 60 °F (1998)
Min Temperature 28 °F 19 °F 0 °F (2007)
Degree Days  
Heating Degree Days 34    
Moisture  
Dew Point 28 °F    
Average Humidity 89    
Maximum Humidity 100    
Minimum Humidity 75    
Precipitation  
Precipitation 0.00 in - - ()
Sea Level Pressure  
Sea Level Pressure 30.00 in    
Wind  
Wind Speed 9 mph (SW)    
Max Wind Speed 17 mph    
Max Gust Speed 24 mph    
Visibility 6 miles    
Events Fog , Snow    
Averages and records for this station are not official NWS values.
T = Trace of Precipitation, MM = Missing Value Source: NWS Daily Summary

Daily Weather History Graph

Daily Weather History Graph

Search for Another Location

Airport:

Trip Planner

Search our weather history database for the weather conditions in past years. The results will help you decide how hot, cold, wet, or windy it might be!

Date:

Astronomy

Dec. 03, 2011 Rise Set
Actual Time 7:33 AM CST 4:31 PM CST
Civil Twilight 6:59 AM CST 5:05 PM CST
Nautical Twilight 6:23 AM CST 5:41 PM CST
Astronomical Twilight 5:47 AM CST 6:17 PM CST
Moon 12:50 PM CST (12/3) 12:46 AM CST (12/3)
Length of Visible Light 10h 05m
Length of Day
8h 58m
Waxing Gibbous, 63% of the Moon is Illuminated
Dec 3
Waxing Gibbous
Dec 10
Full
Dec 17
Last Quarter
Dec 24
New
Jan 1
First Quarter

Hourly Weather History & Observations

Time (CST) Temp. Windchill Dew Point Humidity Pressure Visibility Wind Dir Wind Speed Gust Speed Precip Events Conditions
12:13 AM 33.8 °F 23.9 °F 28.4 °F 81% 30.03 in 10.0 mi SSW 15.0 mph 24.2 mph N/A   Overcast
12:34 AM 33.8 °F 23.2 °F 28.4 °F 81% 30.03 in 10.0 mi SSW 17.3 mph 21.9 mph N/A   Overcast
12:54 AM 33.8 °F 25.8 °F 28.4 °F 81% 30.03 in 10.0 mi SSW 10.4 mph 19.6 mph N/A   Overcast
1:14 AM 33.8 °F 23.9 °F 28.4 °F 81% 30.02 in 10.0 mi South 15.0 mph 23.0 mph N/A   Overcast
1:34 AM 33.8 °F 24.3 °F 28.4 °F 81% 30.02 in 10.0 mi South 13.8 mph 21.9 mph N/A   Overcast
1:54 AM 33.8 °F 24.3 °F 28.4 °F 81% 30.02 in 10.0 mi South 13.8 mph 19.6 mph N/A   Overcast
2:13 AM 33.8 °F 26.4 °F 28.4 °F 81% 30.02 in 10.0 mi South 9.2 mph - N/A   Scattered Clouds
2:34 AM 33.8 °F 25.8 °F 28.4 °F 81% 30.03 in 10.0 mi SSW 10.4 mph - N/A   Clear
2:54 AM 32.0 °F 25.6 °F 28.4 °F 87% 30.02 in 10.0 mi SSW 6.9 mph - N/A   Clear
3:13 AM 32.0 °F 24.2 °F 26.6 °F 80% 30.02 in 10.0 mi South 9.2 mph - N/A   Clear
3:34 AM 32.0 °F 23.6 °F 28.4 °F 87% 30.02 in 10.0 mi South 10.4 mph - N/A   Clear
3:54 AM 32.0 °F 23.6 °F 26.6 °F 80% 30.02 in 10.0 mi South 10.4 mph - N/A   Clear
4:14 AM 32.0 °F 24.2 °F 28.4 °F 87% 30.02 in 10.0 mi South 9.2 mph - N/A   Clear
4:34 AM 32.0 °F 25.6 °F 28.4 °F 87% 30.03 in 10.0 mi SSW 6.9 mph - N/A   Clear
4:54 AM 32.0 °F 26.4 °F 26.6 °F 80% 30.03 in 10.0 mi SSW 5.8 mph - N/A   Clear
5:13 AM 30.2 °F 23.4 °F 26.6 °F 86% 30.03 in 7.0 mi SSW 6.9 mph - N/A   Clear
5:34 AM 30.2 °F 22.6 °F 26.6 °F 86% 30.03 in 7.0 mi South 8.1 mph - N/A   Clear
5:54 AM 30.2 °F 23.4 °F 26.6 °F 86% 30.03 in 7.0 mi SSW 6.9 mph - N/A   Clear
6:14 AM 30.2 °F 23.4 °F 26.6 °F 86% 30.03 in 7.0 mi SSW 6.9 mph - N/A   Clear
6:34 AM 30.2 °F 23.4 °F 26.6 °F 86% 30.04 in 7.0 mi SSW 6.9 mph - N/A   Clear
6:55 AM 30.2 °F 23.4 °F 26.6 °F 86% 30.04 in 7.0 mi SSW 6.9 mph - N/A   Overcast
7:45 AM 28.4 °F 22.2 °F 24.8 °F 86% - 7.0 mi SSW 5.8 mph - N/A   Mostly Cloudy
8:50 AM 28.4 °F 23.3 °F 26.6 °F 93% 30.06 in 5.0 mi SSW 4.6 mph - N/A   Overcast
9:45 AM 30.2 °F 25.4 °F 26.6 °F 86% 30.06 in 6.0 mi SSW 4.6 mph - N/A   Overcast
10:45 AM 32.0 °F 27.5 °F 26.6 °F 80% 30.05 in 5.0 mi West 4.6 mph - N/A   Overcast
11:45 AM 32.0 °F 27.5 °F 26.6 °F 80% 30.06 in 7.0 mi WSW 4.6 mph - N/A   Overcast
1:45 PM 33.8 °F - 26.6 °F 75% 29.99 in 10.0 mi Calm Calm - N/A   Overcast
2:45 PM 33.8 °F - 26.6 °F 75% 29.99 in 10.0 mi Calm Calm - N/A   Overcast
3:25 PM 33.8 °F 27.7 °F 26.6 °F 75% 30.00 in 4.0 mi West 6.9 mph - N/A Snow Light Snow
4:30 PM 30.2 °F - 30.2 °F 100% 30.00 in 1.0 mi Calm Calm - N/A Snow Light Snow
4:50 PM 30.2 °F 26.7 °F 30.2 °F 100% 30.00 in 0.8 mi West 3.5 mph - N/A Fog , Snow Light Snow
5:45 PM 30.2 °F 26.7 °F 30.2 °F 100% 29.98 in 2.0 mi WNW 3.5 mph - N/A Snow Light Snow
6:15 PM 30.2 °F - 30.2 °F 100% 29.98 in 4.0 mi Calm Calm - N/A Snow Light Snow
6:45 PM 30.2 °F - 30.2 °F 100% 29.97 in 5.0 mi Calm Calm - N/A Snow Light Snow
7:45 PM 30.2 °F - 30.2 °F 100% 29.97 in 2.0 mi Calm Calm - N/A Snow Light Snow
9:14 PM 30.2 °F 26.7 °F 30.2 °F 100% 29.96 in 1.8 mi West 3.5 mph - N/A Snow Light Snow
9:33 PM 30.2 °F 25.4 °F 30.2 °F 100% 29.96 in 2.0 mi WNW 4.6 mph - N/A Snow Light Snow
9:54 PM 30.2 °F 25.4 °F 30.2 °F 100% 29.95 in 2.0 mi NW 4.6 mph - N/A Snow Light Snow
10:14 PM 30.2 °F 23.4 °F 30.2 °F 100% 29.94 in 2.5 mi NW 6.9 mph - N/A Snow Light Snow
10:34 PM 30.2 °F 26.7 °F 30.2 °F 100% 29.95 in 2.0 mi NW 3.5 mph - N/A Snow Light Snow
10:54 PM 30.2 °F 24.3 °F 30.2 °F 100% 29.95 in 3.0 mi WNW 5.8 mph - N/A Snow Light Snow
11:14 PM 30.2 °F 24.3 °F 30.2 °F 100% 29.94 in 4.0 mi WNW 5.8 mph - N/A Snow Light Snow
11:34 PM 30.2 °F 26.7 °F 30.2 °F 100% 29.94 in 3.0 mi WNW 3.5 mph - N/A Snow Light Snow
11:54 PM 30.2 °F 22.6 °F 30.2 °F 100% 29.94 in 2.0 mi NW 8.1 mph - N/A Snow Light Snow